GW5532 Weather Reports


time (UTC)temp
C
wind
direction
speed
KPH
gust
KPH
rain 1hr
cm
rain 24hr
cm
rain mn
cm
humidity
%
barometer
mb
20260509224521 29 119 6.4 14.5 0.00 0.56 0.00 39 1008.7
20260509224009 29 171 1.6 11.3 0.00 0.56 0.00 39 1008.7
20260509223509 29 132 3.2 12.9 0.00 0.56 0.00 39 1008.7
20260509223027 29 211 4.8 12.9 0.00 0.56 0.00 40 1008.7
20260509222510 29 173 3.2 11.3 0.00 0.56 0.00 39 1008.7
20260509222009 29 135 4.8 9.7 0.00 0.56 0.00 38 1008.8
20260509221526 30 154 3.2 9.7 0.00 0.56 0.00 39 1008.8
20260509221007 30 191 1.6 11.3 0.00 0.56 0.00 40 1008.8
20260509220506 30 179 4.8 11.3 0.00 0.56 0.00 39 1008.9
20260509220021 29 173 3.2 11.3 0.00 0.56 0.00 41 1008.9
20260509215510 29 146 6.4 11.3 0.00 0.56 0.00 39 1008.8
20260509215006 29 104 4.8 11.3 0.00 0.56 0.00 40 1008.8
20260509214523 29 129 3.2 9.7 0.00 0.56 0.00 39 1008.8
20260509214008 29 128 4.8 9.7 0.00 0.56 0.00 38 1008.9
20260509213513 30 119 3.2 12.9 0.00 0.56 0.00 40 1008.9
20260509213028 29 149 1.6 12.9 0.00 0.56 0.00 41 1008.8
20260509212513 29 100 3.2 16.1 0.00 0.56 0.00 39 1008.9
20260509212009 29 150 6.4 14.5 0.00 0.56 0.00 39 1008.9
20260509211512 28 128 3.2 9.7 0.00 0.56 0.00 42 1009.0
20260509211007 29 104 3.2 14.5 0.00 0.56 0.00 40 1009.0
20260509210507 29 181 1.6 14.5 0.00 0.56 0.00 40 1009.1
20260509210021 29 77 1.6 9.7 0.00 0.56 0.00 37 1009.1
20260509205508 29 117 1.6 11.3 0.00 0.56 0.00 38 1009.2
20260509205008 29 114 4.8 11.3 0.00 0.56 0.00 38 1009.3
20260509204525 29 88 4.8 9.7 0.00 0.56 0.00 37 1009.3
20260509204007 29 105 1.6 9.7 0.00 0.56 0.00 39 1009.4
20260509203502 29 121 3.2 9.7 0.00 0.56 0.00 40 1009.4
20260509203008 29 128 3.2 11.3 0.00 0.56 0.00 40 1009.5
20260509202506 28 35 4.8 11.3 0.00 0.56 0.00 40 1009.5
20260509202007 28 77 3.2 11.3 0.00 0.56 0.00 40 1009.6
20260509201516 28 102 3.2 11.3 0.00 0.56 0.00 40 1009.7
20260509201012 28 159 3.2 11.3 0.00 0.56 0.00 40 1009.6
20260509200507 29 148 1.6 8.0 0.00 0.56 0.00 45 1009.8
20260509200024 28 91 3.2 8.0 0.00 0.56 0.00 40 1009.9
20260509195510 28 155 3.2 8.0 0.00 0.56 0.00 44 1009.9
20260509195008 28 115 3.2 9.7 0.00 0.56 0.00 42 1010.1
20260509194514 28 78 3.2 9.7 0.00 0.56 0.00 43 1010.2
20260509194006 28 82 3.2 12.9 0.00 0.56 0.00 44 1010.2
20260509193507 28 109 4.8 12.9 0.00 0.56 0.00 42 1010.2
20260509193014 28 88 4.8 8.0 0.00 0.56 0.00 41 1010.2
20260509192506 28 236 1.6 8.0 0.00 0.56 0.00 41 1010.2
20260509192009 28 279 1.6 11.3 0.00 0.56 0.00 44 1010.3
20260509191520 28 158 1.6 11.3 0.00 0.56 0.00 42 1010.3
20260509191007 28 142 4.8 11.3 0.00 0.56 0.00 43 1010.4
20260509190506 28 90 3.2 8.0 0.00 0.56 0.00 46 1010.4
20260509190040 28 63 3.2 8.0 0.00 0.56 0.00 43 1010.4
20260509185513 28 132 3.2 8.0 0.00 0.56 0.00 44 1010.4
20260509185004 27 207 1.6 8.0 0.00 0.56 0.00 45 1010.5
20260509184518 27 217 3.2 9.7 0.00 0.56 0.00 41 1010.6
20260509184004 27 274 4.8 11.3 0.00 0.56 0.00 42 1010.6
20260509183507 27 206 4.8 9.7 0.00 0.56 0.00 41 1010.7
20260509183025 27 119 4.8 9.7 0.00 0.56 0.00 48 1010.7
20260509182506 27 169 3.2 9.7 0.00 0.56 0.00 46 1010.8
20260509182007 27 158 1.6 8.0 0.00 0.56 0.00 47 1010.8
20260509181524 27 238 1.6 6.4 0.00 0.56 0.00 46 1010.9
20260509181015 26 317 1.6 6.4 0.00 0.56 0.00 46 1011.0
20260509180508 26 284 3.2 6.4 0.00 0.56 0.00 44 1011.1
20260509180025 26 234 3.2 9.7 0.00 0.56 0.00 47 1011.2
20260509175508 26 245 4.8 9.7 0.00 0.56 0.00 49 1011.3
20260509175003 26 256 4.8 8.0 0.00 0.56 0.00 49 1011.4
20260509174516 26 209 3.2 9.7 0.00 0.56 0.00 51 1011.4
20260509174009 26 302 3.2 6.4 0.00 0.56 0.00 50 1011.5
20260509173507 26 228 1.6 6.4 0.00 0.56 0.00 53 1011.6
20260509173020 26 252 1.6 6.4 0.00 0.56 0.00 58 1011.8
20260509172507 25 286 3.2 6.4 0.00 0.56 0.00 55 1011.9
20260509172007 26 215 1.6 6.4 0.00 0.56 0.00 60 1012.0
20260509171526 26 98 1.6 8.0 0.00 0.56 0.00 56 1012.0
20260509171010 26 81 3.2 8.0 0.00 0.56 0.00 56 1011.9
20260509170510 25 175 1.6 4.8 0.00 0.56 0.00 62 1012.0
20260509170033 25 290 1.6 6.4 0.00 0.56 0.00 59 1012.1
20260509165506 25 259 1.6 6.4 0.00 0.56 0.00 61 1012.1
20260509165005 25 250 3.2 8.0 0.00 0.56 0.00 64 1012.1
20260509164514 25 282 1.6 8.0 0.00 0.56 0.00 67 1012.2
20260509164011 24 244 3.2 8.0 0.00 0.56 0.00 68 1012.2
20260509163508 24 295 3.2 8.0 0.00 0.56 0.00 67 1012.2
20260509163023 24 150 3.2 8.0 0.00 0.56 0.00 67 1012.2
20260509162512 25 175 3.2 8.0 0.00 0.56 0.00 68 1012.2
20260509162012 24 153 3.2 8.0 0.00 0.56 0.00 68 1012.1
20260509161526 25 207 0.0 6.4 0.00 0.56 0.00 67 1012.2
20260509161012 23 169 0.0 11.3 0.00 0.56 0.00 71 1012.3
20260509160508 23 240 3.2 11.3 0.00 0.56 0.00 71 1012.3
20260509160017 23 240 3.2 11.3 0.00 0.56 0.00 72 1012.3
20260509155505 22 263 3.2 8.0 0.00 0.56 0.00 75 1012.1
20260509155011 22 250 3.2 9.7 0.00 0.56 0.00 73 1012.2
20260509154518 22 169 3.2 9.7 0.00 0.56 0.00 75 1012.1
20260509154006 22 173 3.2 8.0 0.00 0.56 0.00 75 1012.1
20260509153507 22 204 1.6 6.4 0.00 0.56 0.00 76 1012.0
20260509153024 22 221 3.2 8.0 0.00 0.56 0.00 79 1012.1
20260509152507 22 219 1.6 9.7 0.00 0.56 0.00 79 1012.1
20260509152010 21 223 4.8 9.7 0.00 0.56 0.00 78 1012.2
20260509151527 21 134 4.8 9.7 0.00 0.56 0.00 79 1012.2
20260509151010 21 292 1.6 9.7 0.00 0.56 0.00 79 1012.2
20260509150511 21 157 1.6 9.7 0.00 0.56 0.00 79 1012.2
20260509150013 21 155 1.6 9.7 0.00 0.56 0.00 79 1012.2
20260509145505 21 148 1.6 4.8 0.00 0.56 0.00 76 1012.1
20260509145013 22 239 0.0 6.4 0.00 0.56 0.00 78 1012.1
20260509144522 21 135 1.6 6.4 0.00 0.56 0.00 79 1011.9
20260509144010 21 82 1.6 6.4 0.00 0.56 0.00 82 1011.8
20260509143507 21 179 1.6 6.4 0.00 0.56 0.00 83 1011.8
20260509143026 20 189 1.6 6.4 0.00 0.56 0.00 82 1011.9
20260509142509 21 232 3.2 6.4 0.00 0.56 0.00 82 1011.9
20260509142012 21 17 0.0 3.2 0.00 0.56 0.00 83 1012.0
20260509141535 20 221 1.6 3.2 0.00 0.56 0.00 82 1012.0
20260509141007 21 49 0.0 0.0 0.00 0.56 0.00 81 1012.0
20260509140506 20 49 0.0 0.0 0.00 0.56 0.00 85 1012.0
20260509140028 20 49 0.0 3.2 0.00 0.56 0.00 84 1011.9
20260509135507 19 49 0.0 3.2 0.00 0.56 0.00 84 1011.9
20260509135007 18 49 0.0 0.0 0.00 0.56 0.00 84 1011.9
20260509134527 18 49 0.0 0.0 0.00 0.56 0.00 86 1011.9
20260509134006 18 49 0.0 0.0 0.00 0.56 0.00 86 1011.7
20260509133507 18 49 0.0 0.0 0.00 0.56 0.00 84 1011.7
20260509133033 18 49 0.0 3.2 0.00 0.56 0.00 88 1011.7
20260509132510 18 49 0.0 3.2 0.00 0.56 0.00 88 1011.7
20260509132009 17 49 0.0 1.6 0.00 0.56 0.00 89 1011.5
20260509131546 17 49 0.0 0.0 0.00 0.56 0.00 91 1011.5
20260509131010 16 49 0.0 0.0 0.00 0.56 0.00 92 1011.4
20260509130507 16 49 0.0 0.0 0.00 0.56 0.00 91 1011.3
20260509130033 16 49 0.0 0.0 0.00 0.56 0.00 93 1011.2
20260509125510 16 49 0.0 0.0 0.00 0.56 0.00 94 1011.1
20260509125012 15 49 0.0 0.0 0.00 0.56 0.00 93 1011.1
20260509124531 16 49 0.0 0.0 0.00 0.56 0.00 94 1010.9
20260509124011 15 49 0.0 0.0 0.00 0.56 0.00 94 1010.9
20260509123507 15 49 0.0 0.0 0.00 0.56 0.00 94 1010.9
20260509123030 15 49 0.0 0.0 0.00 0.56 0.00 94 1010.9
20260509122511 15 49 0.0 0.0 0.00 0.56 0.00 94 1010.9
20260509122007 14 49 0.0 0.0 0.00 0.56 0.00 94 1010.8
20260509121531 14 49 0.0 0.0 0.00 0.56 0.00 94 1010.8
20260509121010 14 49 0.0 0.0 0.00 0.56 0.00 93 1010.8
20260509120510 14 49 0.0 0.0 0.00 0.56 0.00 93 1010.8
20260509120022 14 49 0.0 0.0 0.00 0.56 0.00 93 1010.6
20260509115507 14 49 0.0 3.2 0.00 0.56 0.00 93 1010.4
20260509115010 14 49 0.0 3.2 0.00 0.56 0.00 93 1010.3
20260509114526 14 49 0.0 3.2 0.00 0.56 0.00 93 1010.3
20260509114009 14 49 0.0 3.2 0.00 0.56 0.00 93 1010.3
20260509113512 14 49 0.0 3.2 0.00 0.56 0.00 93 1010.2
20260509113028 14 49 0.0 3.2 0.00 0.56 0.00 93 1010.2
20260509112509 14 49 0.0 3.2 0.00 0.56 0.00 93 1010.1
20260509112010 14 49 0.0 3.2 0.00 0.56 0.00 93 1010.0
20260509111527 14 49 0.0 3.2 0.00 0.56 0.00 93 1010.0
20260509111010 14 49 0.0 3.2 0.00 0.56 0.00 93 1009.9
20260509110506 14 49 0.0 3.2 0.00 0.56 0.00 93 1009.9
20260509110026 14 49 0.0 3.2 0.00 0.56 0.00 93 1009.9
20260509105510 14 49 0.0 3.2 0.00 0.56 0.00 93 1009.9
20260509105014 14 49 0.0 3.2 0.00 0.56 0.00 93 1009.8
20260509104529 14 49 0.0 3.2 0.00 0.56 0.00 93 1009.8
20260509104010 14 49 0.0 0.0 0.00 0.56 0.00 94 1009.9
20260509103510 14 49 0.0 0.0 0.00 0.56 0.00 93 1009.9
20260509103030 14 49 0.0 0.0 0.00 0.56 0.00 93 1010.0
20260509102510 14 49 0.0 1.6 0.00 0.56 0.00 93 1010.0
20260509102009 14 49 0.0 1.6 0.00 0.56 0.00 93 1010.2
20260509101523 14 49 0.0 1.6 0.00 0.56 0.00 93 1010.3
20260509101008 14 49 0.0 0.0 0.00 0.56 0.00 93 1010.4
20260509100507 14 49 0.0 0.0 0.00 0.56 0.00 93 1010.3
20260509100024 14 49 0.0 0.0 0.00 0.56 0.00 93 1010.3
20260509095507 14 49 0.0 0.0 0.00 0.56 0.00 93 1010.3
20260509095007 14 49 0.0 0.0 0.00 0.56 0.00 93 1010.4
20260509094526 14 49 0.0 0.0 0.00 0.56 0.00 93 1010.4
20260509094011 14 49 0.0 0.0 0.00 0.56 0.00 93 1010.3
20260509093508 14 49 0.0 0.0 0.00 0.56 0.00 93 1010.3
20260509093030 14 49 0.0 0.0 0.00 0.56 0.00 93 1010.3
20260509092506 14 49 0.0 0.0 0.00 0.56 0.00 93 1010.4
20260509092011 14 49 0.0 0.0 0.00 0.56 0.00 93 1010.4
20260509091523 14 49 0.0 0.0 0.00 0.56 0.00 93 1010.3
20260509091008 14 49 0.0 0.0 0.00 0.56 0.00 92 1010.3
20260509090507 15 49 0.0 0.0 0.00 0.56 0.00 93 1010.4
20260509090028 15 49 0.0 0.0 0.00 0.56 0.00 92 1010.4
20260509085508 15 49 0.0 0.0 0.00 0.56 0.00 93 1010.4
20260509085007 15 49 0.0 0.0 0.00 0.56 0.00 93 1010.3
20260509084535 15 49 0.0 3.2 0.00 0.56 0.00 93 1010.3
20260509084009 15 49 0.0 3.2 0.00 0.56 0.00 93 1010.4
20260509083516 15 49 0.0 3.2 0.00 0.56 0.00 92 1010.4
20260509083029 15 49 0.0 0.0 0.00 0.56 0.00 92 1010.5
20260509082511 15 49 0.0 0.0 0.00 0.56 0.00 92 1010.6
20260509082012 15 49 0.0 0.0 0.00 0.56 0.00 92 1010.6
20260509081536 15 49 0.0 0.0 0.00 0.56 0.00 92 1010.6
20260509081015 15 49 0.0 0.0 0.00 0.56 0.00 92 1010.7
20260509080507 15 49 0.0 0.0 0.00 0.56 0.00 92 1010.7
20260509080027 15 49 0.0 0.0 0.00 0.56 0.00 92 1010.7
20260509075515 15 49 0.0 0.0 0.00 0.56 0.00 92 1010.8
20260509075009 15 49 0.0 0.0 0.00 0.56 0.00 92 1010.8
20260509074529 15 49 0.0 0.0 0.00 0.56 0.00 92 1010.9
20260509074010 15 49 0.0 0.0 0.00 0.56 0.00 92 1010.9
20260509073509 15 49 0.0 0.0 0.00 0.56 0.00 91 1010.9
20260509073032 15 49 0.0 0.0 0.00 0.56 0.00 91 1010.9
20260509072520 15 49 0.0 0.0 0.00 0.56 0.00 91 1011.1
20260509072013 15 49 0.0 3.2 0.00 0.56 0.00 91 1011.1
20260509071527 16 49 0.0 3.2 0.00 0.56 0.00 91 1010.9
20260509071011 15 49 0.0 3.2 0.00 0.56 0.00 91 1010.9
20260509070507 16 49 0.0 3.2 0.00 0.56 0.00 91 1010.9
20260509070031 16 49 0.0 3.2 0.00 0.56 0.00 91 1011.0
20260509065507 16 49 0.0 0.0 0.00 0.56 0.00 90 1011.1
20260509065009 16 49 0.0 0.0 0.00 0.56 0.00 90 1011.2
20260509064528 16 49 0.0 0.0 0.00 0.56 0.00 90 1011.3
20260509064003 16 49 0.0 0.0 0.00 0.56 0.00 90 1011.3
20260509063502 16 49 0.0 3.2 0.00 0.56 0.00 89 1011.3
20260509063005 16 49 0.0 4.8 0.00 0.56 0.00 89 1011.3
20260509062504 16 49 0.0 6.4 0.00 0.56 0.00 89 1011.3
20260509062004 16 49 1.6 6.4 0.00 0.56 0.00 89 1011.5
20260509061504 16 74 3.2 4.8 0.00 0.56 0.00 89 1011.5
20260509061005 16 60 1.6 4.8 0.00 0.56 0.00 89 1011.6
20260509060505 16 9 0.0 3.2 0.00 0.56 0.00 89 1011.6
20260509060007 16 9 0.0 4.8 0.00 0.56 0.00 89 1011.6
20260509055504 16 9 1.6 4.8 0.00 0.56 0.00 89 1011.7
20260509055005 16 360 1.6 6.4 0.00 0.56 0.00 89 1011.7
20260509054510 16 14 1.6 6.4 0.00 0.56 0.00 88 1011.6
20260509054004 16 69 1.6 6.4 0.00 0.56 0.00 88 1011.7
20260509053504 16 5 0.0 6.4 0.00 0.56 0.00 88 1011.6
20260509053013 16 5 1.6 11.3 0.00 0.56 0.00 89 1011.5
20260509052504 16 342 3.2 11.3 0.00 0.56 0.00 89 1011.4
20260509052002 16 342 3.2 9.7 0.00 0.56 0.00 90 1011.1
20260509051504 16 32 1.6 6.4 0.00 0.56 0.00 90 1010.8
20260509051004 16 67 1.6 6.4 0.00 0.56 0.00 90 1010.7
20260509050504 16 344 1.6 6.4 0.00 0.56 0.00 90 1010.4
20260509050015 16 17 1.6 4.8 0.00 0.56 0.00 90 1010.2
20260509045502 16 352 1.6 6.4 0.00 0.56 0.56 90 1009.9
20260509045003 16 76 1.6 8.0 0.00 0.56 0.56 90 1009.9
20260509044506 16 38 1.6 8.0 0.00 0.56 0.56 90 1010.1
20260509044004 16 37 3.2 8.0 0.00 0.56 0.56 90 1010.2
20260509043504 16 32 1.6 4.8 0.00 0.56 0.56 90 1010.3
20260509043005 16 73 1.6 6.4 0.00 0.56 0.56 90 1010.3
20260509042504 16 83 0.0 6.4 0.00 0.56 0.56 90 1010.3
20260509042005 16 75 3.2 4.8 0.00 0.56 0.56 90 1010.3
20260509041507 16 173 0.0 3.2 0.00 0.56 0.56 90 1010.3
20260509041003 16 173 0.0 1.6 0.00 0.56 0.56 90 1010.3
20260509040508 16 173 0.0 0.0 0.00 0.56 0.56 90 1010.3
20260509040006 16 173 0.0 0.0 0.00 0.56 0.56 90 1010.2
20260509035503 16 173 0.0 0.0 0.00 0.56 0.56 90 1010.2
20260509035006 16 173 0.0 0.0 0.00 0.56 0.56 90 1010.3
20260509034504 16 173 0.0 0.0 0.00 0.56 0.56 90 1010.3
20260509034004 17 173 0.0 0.0 0.00 0.56 0.56 90 1010.3
20260509033503 17 173 0.0 0.0 0.00 0.56 0.56 90 1010.2
20260509033004 17 173 0.0 0.0 0.00 0.56 0.56 90 1010.1
20260509032504 16 173 0.0 0.0 0.00 0.56 0.56 90 1010.1
20260509032004 16 173 0.0 0.0 0.00 0.56 0.56 90 1010.2
20260509031506 16 173 0.0 1.6 0.00 0.56 0.56 90 1010.1
20260509031004 17 173 0.0 3.2 0.00 0.56 0.56 90 1010.1
20260509030504 17 173 0.0 3.2 0.00 0.56 0.56 90 1010.0
20260509030021 17 173 0.0 3.2 0.00 0.56 0.56 90 1010.1
20260509025503 17 173 1.6 3.2 0.00 0.56 0.56 90 1010.1
20260509025003 17 173 0.0 3.2 0.00 0.56 0.56 90 1009.9
20260509024508 17 173 0.0 3.2 0.00 0.56 0.56 90 1009.7
20260509024003 17 173 0.0 6.4 0.00 0.56 0.56 90 1009.5
20260509023503 17 173 0.0 6.4 0.00 0.56 0.56 90 1009.4
20260509023016 17 162 1.6 6.4 0.00 0.56 0.56 90 1009.4
20260509022504 17 162 0.0 6.4 0.00 0.56 0.56 89 1009.4
20260509022002 17 162 0.0 6.4 0.00 0.56 0.56 89 1009.3
20260509021508 17 352 1.6 3.2 0.00 0.56 0.56 89 1009.2
20260509021005 17 352 0.0 3.2 0.00 0.56 0.56 89 1009.4
20260509020503 17 352 0.0 4.8 0.00 0.56 0.56 89 1008.8
20260509020007 17 352 1.6 4.8 0.00 0.56 0.56 89 1009.0
20260509015503 17 158 0.0 3.2 0.00 0.56 0.56 88 1008.9
20260509015004 17 158 0.0 3.2 0.00 0.56 0.56 88 1009.1
20260509014508 17 158 0.0 3.2 0.00 0.56 0.56 87 1009.0
20260509014003 17 158 0.0 3.2 0.00 0.56 0.56 87 1009.1
20260509013503 17 158 0.0 3.2 0.00 0.56 0.56 87 1009.0
20260509013007 17 158 0.0 4.8 0.00 0.56 0.56 86 1008.8
20260509012503 17 158 1.6 4.8 0.00 0.56 0.56 86 1008.5
20260509012003 17 158 0.0 4.8 0.00 0.56 0.56 86 1008.3
20260509011508 17 158 0.0 4.8 0.00 0.56 0.56 87 1008.1
20260509011005 17 146 0.0 9.7 0.03 0.56 0.56 87 1008.1
20260509010507 17 170 4.8 9.7 0.13 0.56 0.56 87 1008.0
20260509010013 17 129 1.6 4.8 0.30 0.56 0.56 87 1007.8
20260509005504 17 122 1.6 4.8 0.56 0.56 0.56 87 1007.9
20260509005004 17 58 1.6 8.0 0.56 0.56 0.56 87 1007.9
20260509004509 17 148 3.2 8.0 0.56 0.56 0.56 88 1008.1
20260509004004 17 129 1.6 4.8 0.56 0.56 0.56 87 1008.0
20260509003504 17 148 1.6 6.4 0.56 0.56 0.56 87 1008.1
20260509003009 17 160 1.6 6.4 0.56 0.56 0.56 86 1007.8
20260509002508 17 131 1.6 9.7 0.56 0.56 0.56 86 1007.9
20260509002004 17 126 1.6 9.7 0.56 0.56 0.56 85 1007.9
20260509001508 17 9 0.0 12.9 0.56 0.56 0.56 86 1007.6
20260509001004 17 11 0.0 17.7 0.53 0.53 0.53 86 1007.6
20260509000509 17 79 3.2 32.2 0.43 0.43 0.43 85 1008.5
20260509000012 18 329 8.0 32.2 0.25 0.25 0.25 82 1008.5
20260508235507 20 258 12.9 27.4 0.00 0.00 0.00 72 1009.1
20260508235004 20 277 3.2 27.4 0.00 0.00 0.00 70 1007.9
20260508234509 20 330 3.2 27.4 0.00 0.00 0.00 69 1007.4
20260508234003 21 60 12.9 27.4 0.00 0.00 0.00 67 1008.2
20260508233507 25 28 12.9 22.5 0.00 0.00 0.00 56 1007.9
20260508233012 26 244 3.2 16.1 0.00 0.00 0.00 55 1006.1
20260508232504 26 236 4.8 16.1 0.00 0.00 0.00 54 1005.8
20260508232007 26 194 3.2 16.1 0.00 0.00 0.00 53 1005.9
20260508231512 26 173 6.4 12.9 0.00 0.00 0.00 52 1006.2
20260508231004 27 229 4.8 12.9 0.00 0.00 0.00 51 1006.4
20260508230504 27 163 1.6 19.3 0.00 0.00 0.00 51 1006.5
20260508230012 27 314 3.2 19.3 0.00 0.00 0.00 51 1006.6
20260508225510 27 206 3.2 14.5 0.00 0.00 0.00 50 1006.5
20260508225004 27 181 6.4 19.3 0.00 0.00 0.00 49 1006.2